Lake Seminole Weather Center

Moon Phase Calendar



Lake Seminole Water Level
Online Cameras

 


      

Current Conditions in Chattahoochee
10/30/2020 9:34:37 AM

51°F
Feels Like 43
Clouds
Humidity
71%
Pressure
30.09"
Wind
11.4 mph (N)
Dew Point
42°F
UV Index
5/10 (Moderate)
Visibility
6 mi

Hourly Forecast

Date & Time Fri, Oct 30
9:00 AM
Fri, Oct 30
10:00 AM
Fri, Oct 30
11:00 AM
Fri, Oct 30
12:00 PM
Fri, Oct 30
1:00 PM
Fri, Oct 30
2:00 PM
Fri, Oct 30
3:00 PM
Fri, Oct 30
4:00 PM
Fri, Oct 30
5:00 PM
Fri, Oct 30
6:00 PM
Fri, Oct 30
7:00 PM
Fri, Oct 30
8:00 PM
Fri, Oct 30
9:00 PM
Fri, Oct 30
10:00 PM
Fri, Oct 30
11:00 PM
Sat, Oct 31
12:00 AM
Sat, Oct 31
1:00 AM
Sat, Oct 31
2:00 AM
Sat, Oct 31
3:00 AM
Sat, Oct 31
4:00 AM
Sat, Oct 31
5:00 AM
Sat, Oct 31
6:00 AM
Sat, Oct 31
7:00 AM
Sat, Oct 31
8:00 AM
Sat, Oct 31
9:00 AM
Sat, Oct 31
10:00 AM
Sat, Oct 31
11:00 AM
Sat, Oct 31
12:00 PM
Sat, Oct 31
1:00 PM
Sat, Oct 31
2:00 PM
Sat, Oct 31
3:00 PM
Sat, Oct 31
4:00 PM
Sat, Oct 31
5:00 PM
Sat, Oct 31
6:00 PM
Sat, Oct 31
7:00 PM
Sat, Oct 31
8:00 PM
Sat, Oct 31
9:00 PM
Sat, Oct 31
10:00 PM
Sat, Oct 31
11:00 PM
Sun, Nov 1
12:00 AM
Sun, Nov 1
1:00 AM
Sun, Nov 1
2:00 AM
Sun, Nov 1
3:00 AM
Sun, Nov 1
4:00 AM
Sun, Nov 1
5:00 AM
Sun, Nov 1
6:00 AM
Sun, Nov 1
7:00 AM
Sun, Nov 1
8:00 AM
Condition
Clouds

Clouds

Clouds

Clear

Clear

Clear

Clear

Clear

Clear

Clear

Clear

Clear

Clear

Clear

Clear

Clear

Clear

Clear

Clear

Clear

Clear

Clear

Clear

Clear

Clear

Clear

Clear

Clear

Clear

Clear

Clouds

Clouds

Clouds

Clouds

Clouds

Clouds

Clouds

Clouds

Clouds

Clouds

Clouds

Clouds

Clouds

Clouds

Clouds

Clouds

Clouds

Clouds
Temperature 51°F53°F57°F61°F64°F67°F68°F68°F68°F66°F62°F60°F59°F58°F57°F56°F55°F54°F53°F53°F53°F53°F53°F53°F56°F60°F63°F67°F69°F72°F73°F72°F70°F69°F68°F67°F66°F66°F65°F63°F63°F62°F63°F63°F62°F61°F60°F60°F
Feels Like 44°F47°F51°F56°F60°F63°F64°F64°F64°F65°F60°F57°F55°F54°F53°F51°F50°F49°F49°F49°F49°F49°F49°F49°F51°F54°F58°F62°F66°F69°F71°F70°F69°F68°F67°F65°F64°F64°F63°F62°F61°F61°F61°F62°F62°F61°F60°F60°F
Cloudiness 90%46%19%6%1%0%0%0%0%0%0%0%0%0%0%0%0%0%0%0%0%0%0%0%0%0%0%0%0%0%25%46%64%73%78%77%46%55%55%48%52%54%100%100%100%91%78%74%
Visibility 6 mi6 mi6 mi6 mi6 mi6 mi6 mi6 mi6 mi6 mi6 mi6 mi6 mi6 mi6 mi6 mi6 mi6 mi6 mi6 mi6 mi6 mi6 mi6 mi6 mi6 mi6 mi6 mi6 mi6 mi6 mi6 mi6 mi6 mi6 mi6 mi6 mi6 mi6 mi6 mi6 mi6 mi6 mi6 mi6 mi6 mi6 mi6 mi
Precipitation 0%0%0%0%0%0%0%0%0%0%0%0%0%0%0%0%0%0%0%0%0%0%0%0%0%0%0%0%0%0%0%0%0%0%0%0%0%0%0%0%0%0%0%0%0%0%0%0%
Humidity 71%72%68%64%59%57%58%58%59%65%70%72%72%73%72%71%70%70%72%74%76%79%83%85%80%71%66%65%64%62%62%64%69%73%73%74%75%74%75%79%81%84%84%85%87%91%94%94%
Dew Point 42°F44°F46°F48°F50°F51°F53°F53°F53°F54°F52°F51°F50°F49°F48°F47°F45°F45°F45°F45°F46°F47°F48°F49°F51°F51°F52°F55°F57°F58°F59°F59°F60°F60°F59°F58°F58°F57°F57°F57°F57°F57°F58°F58°F59°F59°F59°F59°F
Pressure 30.09"30.09"30.12"30.09"30.09"30.09"30.06"30.06"30.06"30.06"30.09"30.12"30.12"30.15"30.18"30.18"30.18"30.15"30.15"30.15"30.15"30.18"30.18"30.21"30.24"30.24"30.24"30.24"30.24"30.21"30.18"30.15"30.15"30.15"30.18"30.18"30.21"30.21"30.21"30.18"30.18"30.18"30.15"30.15"30.15"30.15"30.18"30.18"
Wind Speed 9.5 mph8.5 mph7.6 mph8 mph7.3 mph8.2 mph8.5 mph8.6 mph8.3 mph4.9 mph4.6 mph5.5 mph6.1 mph6.2 mph6 mph6.3 mph6.3 mph6.5 mph6 mph5.7 mph5.8 mph6 mph6.6 mph7.4 mph10 mph11.5 mph11.1 mph10.5 mph10.1 mph8.9 mph8.5 mph8.9 mph7.8 mph6.8 mph6.7 mph7.8 mph7.3 mph7.5 mph7.5 mph6.8 mph6.5 mph6.3 mph6.7 mph6.3 mph6.4 mph5.6 mph4.7 mph4.7 mph
Wind
Direction
345°
NNW
355°
N
356°
N
353°
N
356°
N
349°
N
351°
N
358°
N

N

N
359°
N
348°
NNW
355°
N

N

N
18°
NNE
25°
NNE
31°
NNE
36°
NE
36°
NE
44°
NE
51°
NE
51°
NE
58°
ENE
70°
ENE
74°
ENE
73°
ENE
71°
ENE
76°
ENE
77°
ENE
75°
ENE
79°
E
74°
ENE
67°
ENE
55°
NE
50°
NE
64°
ENE
64°
ENE
69°
ENE
77°
ENE
71°
ENE
59°
ENE
61°
ENE
61°
ENE
59°
ENE
49°
NE
46°
NE
37°
NE

Daily Forecast

Date High Low Precip. Humidity
Today
Oct 30

Clouds
67 °F
51 °F
0%
60%
Saturday
Oct 31

Clear
72 °F
53 °F
0%
62%
Sunday
Nov 1

Clouds
76 °F
60 °F
0%
63%
Monday
Nov 2

Clear
61 °F
45 °F
0%
37%
Tuesday
Nov 3

Clear
64 °F
43 °F
0%
34%
Wednesday
Nov 4

Clear
71 °F
49 °F
0%
44%
Thursday
Nov 5

Clouds
73 °F
55 °F
0%
60%
Friday
Nov 6

Clear
72 °F
55 °F
0%
50%
Saturday
Nov 7

Clear
73 °F
54 °F
0%
45%
Sunday
Nov 8

Clear
79 °F
58 °F
11%
63%
Monday
Nov 9

Rain
83 °F
65 °F
57%
58%
Tuesday
Nov 10

Clear
80 °F
64 °F
0%
57%
Wednesday
Nov 11

Rain
79 °F
64 °F
20%
57%
Thursday
Nov 12

Clouds
75 °F
64 °F
0%
59%
Friday
Nov 13

Clouds
71 °F
60 °F
0%
63%
Saturday
Nov 14

Clouds
77 °F
58 °F
0%
56%


Temperature 8-14 Day Outlook



Precipitation 8-14 Day Outlook




Quick Links
Lake Seminole News
Lake Seminole Photos
Lake Seminole Videos




About Us
Contact Us
Site Map
Search Site
Advertise With Us
   
Seminole.USLakes.info
THE LAKE SEMINOLE WEBSITE

Copyright 2020, Lakes Online
Privacy    |    Legal